Location: New Mesquite
(33.1168°N, 96.4336°W)
Time: 21:42:19
(UTC+00:00)

Okean 1 - Pass Details

Date: 06 July 2022
Orbit: 532 x 553 km, 82.5° (Epoch: 07 August)

Event Time Altitude Azimuth Distance (km) Brightness Sun altitude
Rises 08:39:07 0° 10° (N) 2,683 7.9 -26.3°
Reaches altitude 10° 08:41:40 10° 27° (NNE) 1,786 6.9 -26.0°
Maximum altitude 08:44:42 21° 78° (ENE) 1,223 5.5 -25.7°
Enters shadow 08:46:25 16° 112° (ESE) 1,426 5.5 -25.5°
